Home   Weather   Port Sudan   Past weeks

Flag for Sudan Past Weather in Port Sudan, Sudan — Yesterday and Last 2 Weeks

Now
86 °F

Clear.


Feels Like: 97 °F
Forecast: 81 / 98 °F
Wind: 5 mph from Northwest

Location: Jeddah King Abdul Aziz International Airport

Current Time: Sep 25, 2016 at 1:42:58 AM

Latest Report: Sep 25, 2016 at 1:00 AM


Visibility: 10 mi

Pressure: 29.65 "Hg

Humidity: 75%

Dew Point: 77 °F

Location of Port SudanLocation

Past Weather in Port Sudan — Graph

°F

Port Sudan Temperature Yesterday

Maximum temperature yesterday: 97 °F (at 12:00 PM)
Minimum temperature yesterday: 84 °F (at 3:00 AM)
Average temperature yesterday: 89 °F

High & Low Weather Summary for the Past Weeks

 TemperatureHumidityPressure
High100 °F (Sep 10, 3:00 PM)94% (Sep 17, 6:00 AM)29.77 "Hg (Sep 17, 6:00 AM)
Low82 °F (Sep 10, 6:00 AM)29% (Sep 10, 4:00 PM)29.59 "Hg (Sep 12, 3:00 PM)
Average90 °F64%29.68 "Hg
* Reported Sep 10 12:00 AM — Sep 25 12:00 AM, Port Sudan, Weather by CustomWeather, © 2016

Note: Actual official high and low records may vary slightly from our data, if they occured in-between our weather recording intervals... More about our weather records

Advertising

Port Sudan Weather History for the Previous 24 Hours

Scroll right to see more
 ConditionsComfort  
Time TempWeatherWind HumidityBarometerVisibility
12:00 AM
Sun, Sep 25
86 °FClear.8 mph79%29.65 "Hg10 mi
11:00 PM
Sat, Sep 24
88 °FPassing clouds.7 mph70%29.68 "HgN/A
10:00 PM88 °FPassing clouds.10 mph70%29.68 "HgN/A
9:00 PM88 °FPassing clouds.14 mph70%29.68 "HgN/A
8:00 PM88 °FPassing clouds.15 mph70%29.68 "HgN/A
7:00 PM90 °FPassing clouds.17 mph67%29.65 "HgN/A
6:00 PM91 °FScattered clouds.16 mph63%29.62 "HgN/A
5:00 PM93 °FPassing clouds.16 mph59%29.62 "HgN/A
4:00 PM93 °FPassing clouds.14 mph56%29.62 "HgN/A
3:00 PM93 °FPassing clouds.18 mph59%29.62 "HgN/A
2:00 PM95 °FSunny.14 mph50%29.65 "Hg10 mi
1:00 PM95 °FPassing clouds.7 mph50%29.65 "HgN/A
12:00 PM97 °FPassing clouds.9 mph42%29.68 "HgN/A
11:00 AM95 °FPassing clouds.9 mph47%29.71 "HgN/A
10:00 AM90 °FPassing clouds.9 mph63%29.71 "HgN/A
9:00 AM90 °FScattered clouds.9 mph63%29.71 "HgN/A
8:00 AM88 °FScattered clouds.9 mph62%29.68 "HgN/A
7:00 AM86 °FScattered clouds.9 mph70%29.68 "HgN/A
6:00 AM86 °FPassing clouds.9 mph70%29.65 "HgN/A
5:00 AM84 °FPassing clouds.12 mph79%29.65 "HgN/A
4:00 AM84 °FPassing clouds.12 mph79%29.65 "HgN/A
3:00 AM84 °FPassing clouds.9 mph79%29.62 "HgN/A
2:00 AM86 °FPassing clouds.7 mph75%29.65 "HgN/A
1:00 AM86 °FClear.7 mph75%29.65 "Hg10 mi
Weather by CustomWeather, © 2016

See weather overviewHow to use our weather pages